CST,Max TemperatureF,Mean TemperatureF,Min TemperatureF,Max Dew PointF,MeanDew PointF,Min DewpointF,Max Humidity, Mean Humidity, Min Humidity, Max Sea Level PressureIn, Mean Sea Level PressureIn, Min Sea Level PressureIn, Max VisibilityMiles, Mean VisibilityMiles, Min VisibilityMiles, Max Wind SpeedMPH, Mean Wind SpeedMPH, Max Gust SpeedMPH,PrecipitationIn, CloudCover, Events, WindDirDegrees
2013-11-1,68,56,44,51,48,42,89,67,45,29.86,29.76,29.69,10,10,10,20,8,24,0.00,0,,249
2013-11-2,60,49,37,45,40,35,92,71,49,30.20,30.01,29.86,10,10,6,18,6,24,0.00,3,,274
2013-11-3,61,47,33,40,33,30,92,64,35,30.33,30.25,30.19,10,7,0,12,4,14,0.00,0,Fog,133
2013-11-4,62,54,45,50,42,37,96,70,43,30.30,30.25,30.22,10,10,6,17,5,23,T,3,Rain,160
2013-11-5,66,59,51,49,45,41,77,63,48,30.32,30.23,30.13,10,10,10,16,8,21,0.00,5,,157
2013-11-6,61,52,43,57,49,38,93,72,51,30.25,30.10,30.03,10,7,2,20,10,25,0.34,7,Rain,250
2013-11-7,55,46,37,37,33,28,85,62,38,30.40,30.33,30.26,10,10,7,10,5,14,0.00,0,,284
2013-11-8,60,45,30,39,31,28,92,62,31,30.41,30.31,30.22,10,8,1,12,3,14,0.00,0,,154
2013-11-9,65,53,40,42,38,32,77,59,40,30.24,30.20,30.14,10,10,10,21,8,28,0.00,0,,217
2013-11-10,63,49,35,41,34,26,100,63,25,30.39,30.32,30.24,10,6,0,14,3,20,0.00,0,Fog,326
2013-11-11,64,49,33,45,35,30,89,62,34,30.32,30.24,30.15,10,10,8,24,5,31,0.00,5,,281
2013-11-12,46,37,27,36,24,18,79,58,37,30.71,30.59,30.35,10,10,10,26,13,36,0.02,4,,8
2013-11-13,46,33,20,24,20,17,91,61,31,30.73,30.59,30.42,10,10,10,8,2,12,0.00,0,,178
2013-11-14,56,42,28,26,20,18,64,43,22,30.42,30.28,30.15,10,10,10,16,6,21,0.00,0,,200
2013-11-15,53,49,44,50,38,22,89,64,38,30.15,30.09,30.03,10,9,5,12,5,16,0.01,6,Rain,167
2013-11-16,69,61,53,61,56,50,89,81,72,30.03,29.92,29.78,10,10,8,21,12,35,T,7,Rain,174
2013-11-17,75,65,55,67,58,28,87,60,33,29.95,29.71,29.56,10,8,0,38,11,49,1.55,6,Fog-Rain-Thunderstorm,220
2013-11-18,62,48,34,41,33,25,86,58,29,30.29,30.17,29.98,10,10,10,17,6,23,0.00,0,,307
2013-11-19,50,42,33,31,29,27,89,66,42,30.34,30.27,30.22,10,9,2,12,3,16,0.00,0,,59
2013-11-20,59,44,29,35,32,25,85,61,37,30.22,30.16,30.10,10,10,6,13,6,16,0.00,0,,125
2013-11-21,62,56,49,55,48,36,86,70,54,30.22,30.17,30.14,10,9,5,15,6,20,0.10,6,Rain,162
2013-11-22,59,51,42,57,47,35,93,85,76,30.43,30.30,30.17,10,5,2,20,11,24,0.22,8,Rain,335
2013-11-23,47,36,24,35,23,12,82,58,33,30.67,30.54,30.43,10,10,10,24,15,30,0.00,4,,6
2013-11-24,35,27,19,16,12,10,67,53,38,30.74,30.63,30.47,10,10,10,17,8,22,0.00,0,,46
2013-11-25,39,35,31,32,23,15,82,61,40,30.46,30.31,30.20,10,10,6,10,5,15,0.01,7,Rain,165
2013-11-26,41,36,30,32,29,15,89,71,52,30.19,30.09,30.00,10,8,3,24,10,33,0.02,7,Rain-Snow,12
2013-11-27,33,26,18,14,9,6,77,55,33,30.39,30.30,30.17,10,10,10,25,10,33,0.00,0,,337
2013-11-28,45,31,17,22,17,10,81,59,36,30.49,30.41,30.33,10,10,10,16,5,24,0.00,0,,209
2013-11-29,53,37,21,29,25,17,88,63,38,30.59,30.51,30.43,10,10,7,10,3,13,0.00,0,,135
2013-11-30,58,42,26,29,25,23,78,52,25,30.42,30.30,30.19,10,10,10,17,7,23,0.00,1,,199